Saint Francis River (Missouri), Saco (07036100)

StateMissouriLatestLow (235 cfs)
RiverSaint Francis RiverRatingObservedEstimated
Updated2026-05-05 12:00 (28 minutes ago)Flood - The river is flooding. Obstacles can be treacherous or deadly. The river should be avoided at this stage for casual trips and definitely for the inexperienced. Trips should be attempted only with protective gear and equipment.Flood(none)4271
Discharge235 cfs (median: 1130 cfs)High - The river is high and potentially dangerous, especially for the young and / or inexperienced. Normal stream obstacles are sometimes difficult to navigate. Extended distances can be attempted, but canoe travel may not be advisable.High(none)1665
Height3.23 feetGood - Conditions are ideal for a canoe or kayak. Boats typically will drag on fewer than one-quarter of riffles, if at all, and portages are unnecessary or rare. Normal float lengths can be attempted without a problem.Good(none)671
TrendFalling (falling over 24 hours)Low - River is low but can still be floated. Some riffles are okay but most come with significant dragging and might need a portage. Float lengths should be reduced to accommodate low flow, dragging, and portages.Low(none)186
USGSExternal icon USGS Site (External icon Duck Duck Go Maps)Poor - River is too low to float comfortably. Most or all riffles will drag or must be portaged and some obstacles (such as slick shelf rock) cause undue problems. Avoid the river at this stage for casual paddling trips.Poor(none)53

Trending Data

Plot Image

Trips for Saint Francis River (Missouri), Saco (07036100)

DateStartEndDistanceConditionDischargeHeightFishingDetails

A total of 0 rows are displayed.

Condition Descriptions

Fishing Conditions

Fish Species

Notes

Classic Trip List

The classic River Trips application is still available for use. It is updated with the new system using a data retrofit. It is no longer maintained. The original River Trips application is no longer updated (as of 1 Dec 2016) but can be checked for errors or for the condition of the data before it was converted to the new system.

Gauge Data Table

ObservationHeightDischargeMaximum
Discharge
Minimum
Discharge
Mean
Discharge
P05P10P20P25P50
(Median)
P75P80P90P95
2026-05-05 12:00 3.23 235 11000 (2017) 113 (2012) 2220 130 164 237 427 1130 3160 3830 7070 9160
2026-05-05 11:30 3.28 249 11000 (2017) 113 (2012) 2220 130 164 237 427 1130 3160 3830 7070 9160
2026-05-05 11:00 3.28 249 11000 (2017) 113 (2012) 2220 130 164 237 427 1130 3160 3830 7070 9160
2026-05-05 10:30 3.24 237 11000 (2017) 113 (2012) 2220 130 164 237 427 1130 3160 3830 7070 9160
2026-05-05 10:00 3.25 240 11000 (2017) 113 (2012) 2220 130 164 237 427 1130 3160 3830 7070 9160
2026-05-05 09:30 3.29 252 11000 (2017) 113 (2012) 2220 130 164 237 427 1130 3160 3830 7070 9160
2026-05-05 09:00 3.29 252 11000 (2017) 113 (2012) 2220 130 164 237 427 1130 3160 3830 7070 9160
2026-05-05 08:30 3.29 252 11000 (2017) 113 (2012) 2220 130 164 237 427 1130 3160 3830 7070 9160
2026-05-05 08:00 3.29 252 11000 (2017) 113 (2012) 2220 130 164 237 427 1130 3160 3830 7070 9160
2026-05-05 07:30 3.29 252 11000 (2017) 113 (2012) 2220 130 164 237 427 1130 3160 3830 7070 9160
2026-05-05 07:00 3.29 252 11000 (2017) 113 (2012) 2220 130 164 237 427 1130 3160 3830 7070 9160
2026-05-05 06:30 3.29 252 11000 (2017) 113 (2012) 2220 130 164 237 427 1130 3160 3830 7070 9160
2026-05-05 06:00 3.30 255 11000 (2017) 113 (2012) 2220 130 164 237 427 1130 3160 3830 7070 9160
2026-05-05 05:30 3.30 255 11000 (2017) 113 (2012) 2220 130 164 237 427 1130 3160 3830 7070 9160
2026-05-05 05:00 3.30 255 11000 (2017) 113 (2012) 2220 130 164 237 427 1130 3160 3830 7070 9160
2026-05-05 04:30 3.30 255 11000 (2017) 113 (2012) 2220 130 164 237 427 1130 3160 3830 7070 9160
2026-05-05 04:00 3.31 258 11000 (2017) 113 (2012) 2220 130 164 237 427 1130 3160 3830 7070 9160
2026-05-05 03:30 3.31 258 11000 (2017) 113 (2012) 2220 130 164 237 427 1130 3160 3830 7070 9160
2026-05-05 03:00 3.31 258 11000 (2017) 113 (2012) 2220 130 164 237 427 1130 3160 3830 7070 9160
2026-05-05 02:30 3.31 258 11000 (2017) 113 (2012) 2220 130 164 237 427 1130 3160 3830 7070 9160
2026-05-05 02:00 3.31 258 11000 (2017) 113 (2012) 2220 130 164 237 427 1130 3160 3830 7070 9160
2026-05-05 01:30 3.31 258 11000 (2017) 113 (2012) 2220 130 164 237 427 1130 3160 3830 7070 9160
2026-05-05 01:00 3.31 258 11000 (2017) 113 (2012) 2220 130 164 237 427 1130 3160 3830 7070 9160
2026-05-05 00:30 3.32 261 11000 (2017) 113 (2012) 2220 130 164 237 427 1130 3160 3830 7070 9160
2026-05-05 00:00 3.32 261 11000 (2017) 113 (2012) 2220 130 164 237 427 1130 3160 3830 7070 9160
2026-05-04 23:30 3.32 261 11000 (2017) 113 (2012) 2220 130 164 237 427 1130 3160 3830 7070 9160
2026-05-04 23:00 3.32 261 11000 (2017) 113 (2012) 2220 130 164 237 427 1130 3160 3830 7070 9160
2026-05-04 22:30 3.33 264 20800 (2013) 122 (2012) 3430 136 163 255 455 1060 4900 7980 12000 15100
2026-05-04 22:00 3.33 264 20800 (2013) 122 (2012) 3430 136 163 255 455 1060 4900 7980 12000 15100
2026-05-04 21:30 3.33 264 20800 (2013) 122 (2012) 3430 136 163 255 455 1060 4900 7980 12000 15100
2026-05-04 21:00 3.33 264 20800 (2013) 122 (2012) 3430 136 163 255 455 1060 4900 7980 12000 15100
2026-05-04 20:30 3.34 267 20800 (2013) 122 (2012) 3430 136 163 255 455 1060 4900 7980 12000 15100
2026-05-04 20:00 3.34 267 20800 (2013) 122 (2012) 3430 136 163 255 455 1060 4900 7980 12000 15100
2026-05-04 19:30 3.34 267 20800 (2013) 122 (2012) 3430 136 163 255 455 1060 4900 7980 12000 15100
2026-05-04 19:00 3.35 270 20800 (2013) 122 (2012) 3430 136 163 255 455 1060 4900 7980 12000 15100
2026-05-04 18:30 3.35 270 20800 (2013) 122 (2012) 3430 136 163 255 455 1060 4900 7980 12000 15100
2026-05-04 18:00 3.35 270 20800 (2013) 122 (2012) 3430 136 163 255 455 1060 4900 7980 12000 15100
2026-05-04 17:30 3.35 270 20800 (2013) 122 (2012) 3430 136 163 255 455 1060 4900 7980 12000 15100
2026-05-04 17:00 3.32 261 20800 (2013) 122 (2012) 3430 136 163 255 455 1060 4900 7980 12000 15100
2026-05-04 16:30 3.36 273 20800 (2013) 122 (2012) 3430 136 163 255 455 1060 4900 7980 12000 15100
2026-05-04 16:00 3.37 276 20800 (2013) 122 (2012) 3430 136 163 255 455 1060 4900 7980 12000 15100
2026-05-04 15:30 3.35 270 20800 (2013) 122 (2012) 3430 136 163 255 455 1060 4900 7980 12000 15100
2026-05-04 15:00 3.36 273 20800 (2013) 122 (2012) 3430 136 163 255 455 1060 4900 7980 12000 15100
2026-05-04 14:30 3.36 273 20800 (2013) 122 (2012) 3430 136 163 255 455 1060 4900 7980 12000 15100
2026-05-04 14:00 3.38 279 20800 (2013) 122 (2012) 3430 136 163 255 455 1060 4900 7980 12000 15100
2026-05-04 13:30 3.38 279 20800 (2013) 122 (2012) 3430 136 163 255 455 1060 4900 7980 12000 15100
2026-05-04 13:00 3.40 286 20800 (2013) 122 (2012) 3430 136 163 255 455 1060 4900 7980 12000 15100
2026-05-04 12:30 3.39 283 20800 (2013) 122 (2012) 3430 136 163 255 455 1060 4900 7980 12000 15100
2026-05-04 12:00 3.36 273 20800 (2013) 122 (2012) 3430 136 163 255 455 1060 4900 7980 12000 15100
2026-05-04 11:30 3.37 276 20800 (2013) 122 (2012) 3430 136 163 255 455 1060 4900 7980 12000 15100
2026-05-04 11:00 3.36 273 20800 (2013) 122 (2012) 3430 136 163 255 455 1060 4900 7980 12000 15100
2026-05-04 10:30 3.40 286 20800 (2013) 122 (2012) 3430 136 163 255 455 1060 4900 7980 12000 15100
2026-05-04 10:00 3.40 286 20800 (2013) 122 (2012) 3430 136 163 255 455 1060 4900 7980 12000 15100
2026-05-04 09:30 3.41 289 20800 (2013) 122 (2012) 3430 136 163 255 455 1060 4900 7980 12000 15100
2026-05-04 09:00 3.41 289 20800 (2013) 122 (2012) 3430 136 163 255 455 1060 4900 7980 12000 15100
2026-05-04 08:30 3.42 292 20800 (2013) 122 (2012) 3430 136 163 255 455 1060 4900 7980 12000 15100
2026-05-04 08:00 3.42 292 20800 (2013) 122 (2012) 3430 136 163 255 455 1060 4900 7980 12000 15100
2026-05-04 07:30 3.42 292 20800 (2013) 122 (2012) 3430 136 163 255 455 1060 4900 7980 12000 15100
2026-05-04 07:00 3.43 295 20800 (2013) 122 (2012) 3430 136 163 255 455 1060 4900 7980 12000 15100
2026-05-04 06:30 3.43 295 20800 (2013) 122 (2012) 3430 136 163 255 455 1060 4900 7980 12000 15100
2026-05-04 06:00 3.43 295 20800 (2013) 122 (2012) 3430 136 163 255 455 1060 4900 7980 12000 15100
2026-05-04 05:30 3.44 298 20800 (2013) 122 (2012) 3430 136 163 255 455 1060 4900 7980 12000 15100
2026-05-04 05:00 3.44 298 20800 (2013) 122 (2012) 3430 136 163 255 455 1060 4900 7980 12000 15100
2026-05-04 04:30 3.44 298 20800 (2013) 122 (2012) 3430 136 163 255 455 1060 4900 7980 12000 15100
2026-05-04 04:00 3.44 298 20800 (2013) 122 (2012) 3430 136 163 255 455 1060 4900 7980 12000 15100
2026-05-04 03:30 3.45 302 20800 (2013) 122 (2012) 3430 136 163 255 455 1060 4900 7980 12000 15100
2026-05-04 03:00 3.45 302 20800 (2013) 122 (2012) 3430 136 163 255 455 1060 4900 7980 12000 15100
2026-05-04 02:30 3.45 302 20800 (2013) 122 (2012) 3430 136 163 255 455 1060 4900 7980 12000 15100
2026-05-04 02:00 3.46 305 20800 (2013) 122 (2012) 3430 136 163 255 455 1060 4900 7980 12000 15100
2026-05-04 01:30 3.46 305 20800 (2013) 122 (2012) 3430 136 163 255 455 1060 4900 7980 12000 15100
2026-05-04 01:00 3.46 305 20800 (2013) 122 (2012) 3430 136 163 255 455 1060 4900 7980 12000 15100
2026-05-04 00:30 3.47 308 20800 (2013) 122 (2012) 3430 136 163 255 455 1060 4900 7980 12000 15100
2026-05-04 00:00 3.47 308 20800 (2013) 122 (2012) 3430 136 163 255 455 1060 4900 7980 12000 15100
2026-05-03 23:30 3.47 308 20800 (2013) 122 (2012) 3430 136 163 255 455 1060 4900 7980 12000 15100
2026-05-03 23:00 3.48 312 20800 (2013) 122 (2012) 3430 136 163 255 455 1060 4900 7980 12000 15100
2026-05-03 22:30 3.48 312 11200 (2011) 131 (2012) 2610 146 165 280 402 1180 3570 4320 8640 10600
2026-05-03 22:00 3.48 312 11200 (2011) 131 (2012) 2610 146 165 280 402 1180 3570 4320 8640 10600
2026-05-03 21:30 3.48 312 11200 (2011) 131 (2012) 2610 146 165 280 402 1180 3570 4320 8640 10600
2026-05-03 21:00 3.49 315 11200 (2011) 131 (2012) 2610 146 165 280 402 1180 3570 4320 8640 10600
2026-05-03 20:30 3.49 315 11200 (2011) 131 (2012) 2610 146 165 280 402 1180 3570 4320 8640 10600
2026-05-03 20:00 3.49 315 11200 (2011) 131 (2012) 2610 146 165 280 402 1180 3570 4320 8640 10600
2026-05-03 19:30 3.49 315 11200 (2011) 131 (2012) 2610 146 165 280 402 1180 3570 4320 8640 10600
2026-05-03 19:00 3.50 318 11200 (2011) 131 (2012) 2610 146 165 280 402 1180 3570 4320 8640 10600
2026-05-03 18:30 3.50 318 11200 (2011) 131 (2012) 2610 146 165 280 402 1180 3570 4320 8640 10600
2026-05-03 18:00 3.50 318 11200 (2011) 131 (2012) 2610 146 165 280 402 1180 3570 4320 8640 10600
2026-05-03 17:30 3.51 322 11200 (2011) 131 (2012) 2610 146 165 280 402 1180 3570 4320 8640 10600
2026-05-03 17:00 3.51 322 11200 (2011) 131 (2012) 2610 146 165 280 402 1180 3570 4320 8640 10600
2026-05-03 16:30 3.52 325 11200 (2011) 131 (2012) 2610 146 165 280 402 1180 3570 4320 8640 10600
2026-05-03 16:00 3.52 325 11200 (2011) 131 (2012) 2610 146 165 280 402 1180 3570 4320 8640 10600
2026-05-03 15:30 3.52 325 11200 (2011) 131 (2012) 2610 146 165 280 402 1180 3570 4320 8640 10600
2026-05-03 15:00 3.53 328 11200 (2011) 131 (2012) 2610 146 165 280 402 1180 3570 4320 8640 10600
2026-05-03 14:30 3.53 328 11200 (2011) 131 (2012) 2610 146 165 280 402 1180 3570 4320 8640 10600
2026-05-03 14:00 3.52 325 11200 (2011) 131 (2012) 2610 146 165 280 402 1180 3570 4320 8640 10600
2026-05-03 13:30 3.54 332 11200 (2011) 131 (2012) 2610 146 165 280 402 1180 3570 4320 8640 10600
2026-05-03 13:00 3.53 328 11200 (2011) 131 (2012) 2610 146 165 280 402 1180 3570 4320 8640 10600
2026-05-03 12:30 3.51 322 11200 (2011) 131 (2012) 2610 146 165 280 402 1180 3570 4320 8640 10600
2026-05-03 12:00 3.53 328 11200 (2011) 131 (2012) 2610 146 165 280 402 1180 3570 4320 8640 10600
2026-05-03 11:30 3.50 318 11200 (2011) 131 (2012) 2610 146 165 280 402 1180 3570 4320 8640 10600
2026-05-03 11:00 3.55 335 11200 (2011) 131 (2012) 2610 146 165 280 402 1180 3570 4320 8640 10600
2026-05-03 10:30 3.55 335 11200 (2011) 131 (2012) 2610 146 165 280 402 1180 3570 4320 8640 10600
2026-05-03 10:00 3.56 339 11200 (2011) 131 (2012) 2610 146 165 280 402 1180 3570 4320 8640 10600
2026-05-03 09:30 3.56 339 11200 (2011) 131 (2012) 2610 146 165 280 402 1180 3570 4320 8640 10600
2026-05-03 09:00 3.56 339 11200 (2011) 131 (2012) 2610 146 165 280 402 1180 3570 4320 8640 10600
2026-05-03 08:30 3.56 339 11200 (2011) 131 (2012) 2610 146 165 280 402 1180 3570 4320 8640 10600
2026-05-03 08:00 3.57 342 11200 (2011) 131 (2012) 2610 146 165 280 402 1180 3570 4320 8640 10600
2026-05-03 07:30 3.57 342 11200 (2011) 131 (2012) 2610 146 165 280 402 1180 3570 4320 8640 10600
2026-05-03 07:00 3.57 342 11200 (2011) 131 (2012) 2610 146 165 280 402 1180 3570 4320 8640 10600
2026-05-03 06:30 3.58 346 11200 (2011) 131 (2012) 2610 146 165 280 402 1180 3570 4320 8640 10600
2026-05-03 06:00 3.58 346 11200 (2011) 131 (2012) 2610 146 165 280 402 1180 3570 4320 8640 10600
2026-05-03 05:30 3.59 349 11200 (2011) 131 (2012) 2610 146 165 280 402 1180 3570 4320 8640 10600
2026-05-03 05:00 3.59 349 11200 (2011) 131 (2012) 2610 146 165 280 402 1180 3570 4320 8640 10600
2026-05-03 04:30 3.60 353 11200 (2011) 131 (2012) 2610 146 165 280 402 1180 3570 4320 8640 10600
2026-05-03 04:00 3.60 353 11200 (2011) 131 (2012) 2610 146 165 280 402 1180 3570 4320 8640 10600
2026-05-03 03:30 3.61 356 11200 (2011) 131 (2012) 2610 146 165 280 402 1180 3570 4320 8640 10600
2026-05-03 03:00 3.61 356 11200 (2011) 131 (2012) 2610 146 165 280 402 1180 3570 4320 8640 10600
2026-05-03 02:30 3.59 349 11200 (2011) 131 (2012) 2610 146 165 280 402 1180 3570 4320 8640 10600
2026-05-03 02:00 3.61 356 11200 (2011) 131 (2012) 2610 146 165 280 402 1180 3570 4320 8640 10600
2026-05-03 01:30 3.61 356 11200 (2011) 131 (2012) 2610 146 165 280 402 1180 3570 4320 8640 10600
2026-05-03 01:00 3.61 356 11200 (2011) 131 (2012) 2610 146 165 280 402 1180 3570 4320 8640 10600
2026-05-03 00:30 3.63 363 11200 (2011) 131 (2012) 2610 146 165 280 402 1180 3570 4320 8640 10600
2026-05-03 00:00 3.63 363 11200 (2011) 131 (2012) 2610 146 165 280 402 1180 3570 4320 8640 10600
2026-05-02 23:30 3.64 367 11200 (2011) 131 (2012) 2610 146 165 280 402 1180 3570 4320 8640 10600
2026-05-02 23:00 3.64 367 11200 (2011) 131 (2012) 2610 146 165 280 402 1180 3570 4320 8640 10600
2026-05-02 22:30 3.63 363 21300 (2011) 144 (2012) 2640 159 174 309 370 1020 2570 3980 7550 15200
2026-05-02 22:00 3.65 371 21300 (2011) 144 (2012) 2640 159 174 309 370 1020 2570 3980 7550 15200
2026-05-02 21:30 3.66 374 21300 (2011) 144 (2012) 2640 159 174 309 370 1020 2570 3980 7550 15200
2026-05-02 21:00 3.66 374 21300 (2011) 144 (2012) 2640 159 174 309 370 1020 2570 3980 7550 15200
2026-05-02 20:30 3.67 378 21300 (2011) 144 (2012) 2640 159 174 309 370 1020 2570 3980 7550 15200
2026-05-02 20:00 3.67 378 21300 (2011) 144 (2012) 2640 159 174 309 370 1020 2570 3980 7550 15200
2026-05-02 19:30 3.68 382 21300 (2011) 144 (2012) 2640 159 174 309 370 1020 2570 3980 7550 15200
2026-05-02 19:00 3.68 382 21300 (2011) 144 (2012) 2640 159 174 309 370 1020 2570 3980 7550 15200
2026-05-02 18:30 3.68 382 21300 (2011) 144 (2012) 2640 159 174 309 370 1020 2570 3980 7550 15200
2026-05-02 18:00 3.69 385 21300 (2011) 144 (2012) 2640 159 174 309 370 1020 2570 3980 7550 15200
2026-05-02 17:30 3.70 389 21300 (2011) 144 (2012) 2640 159 174 309 370 1020 2570 3980 7550 15200
2026-05-02 17:00 3.67 378 21300 (2011) 144 (2012) 2640 159 174 309 370 1020 2570 3980 7550 15200
2026-05-02 16:30 3.67 378 21300 (2011) 144 (2012) 2640 159 174 309 370 1020 2570 3980 7550 15200
2026-05-02 16:00 3.67 378 21300 (2011) 144 (2012) 2640 159 174 309 370 1020 2570 3980 7550 15200
2026-05-02 15:30 3.69 385 21300 (2011) 144 (2012) 2640 159 174 309 370 1020 2570 3980 7550 15200
2026-05-02 15:00 3.69 385 21300 (2011) 144 (2012) 2640 159 174 309 370 1020 2570 3980 7550 15200
2026-05-02 14:30 3.69 385 21300 (2011) 144 (2012) 2640 159 174 309 370 1020 2570 3980 7550 15200
2026-05-02 14:00 3.72 397 21300 (2011) 144 (2012) 2640 159 174 309 370 1020 2570 3980 7550 15200
2026-05-02 13:30 3.72 397 21300 (2011) 144 (2012) 2640 159 174 309 370 1020 2570 3980 7550 15200
2026-05-02 13:00 3.70 389 21300 (2011) 144 (2012) 2640 159 174 309 370 1020 2570 3980 7550 15200
2026-05-02 12:30 3.70 389 21300 (2011) 144 (2012) 2640 159 174 309 370 1020 2570 3980 7550 15200
2026-05-02 12:00 3.75 408 21300 (2011) 144 (2012) 2640 159 174 309 370 1020 2570 3980 7550 15200
2026-05-02 11:30 3.75 408 21300 (2011) 144 (2012) 2640 159 174 309 370 1020 2570 3980 7550 15200
2026-05-02 11:00 3.74 404 21300 (2011) 144 (2012) 2640 159 174 309 370 1020 2570 3980 7550 15200
2026-05-02 10:30 3.76 412 21300 (2011) 144 (2012) 2640 159 174 309 370 1020 2570 3980 7550 15200
2026-05-02 10:00 3.76 412 21300 (2011) 144 (2012) 2640 159 174 309 370 1020 2570 3980 7550 15200
2026-05-02 09:30 3.77 416 21300 (2011) 144 (2012) 2640 159 174 309 370 1020 2570 3980 7550 15200
2026-05-02 09:00 3.78 420 21300 (2011) 144 (2012) 2640 159 174 309 370 1020 2570 3980 7550 15200
2026-05-02 08:30 3.78 420 21300 (2011) 144 (2012) 2640 159 174 309 370 1020 2570 3980 7550 15200
2026-05-02 08:00 3.79 423 21300 (2011) 144 (2012) 2640 159 174 309 370 1020 2570 3980 7550 15200
2026-05-02 07:30 3.79 423 21300 (2011) 144 (2012) 2640 159 174 309 370 1020 2570 3980 7550 15200
2026-05-02 07:00 3.80 427 21300 (2011) 144 (2012) 2640 159 174 309 370 1020 2570 3980 7550 15200
2026-05-02 06:30 3.78 420 21300 (2011) 144 (2012) 2640 159 174 309 370 1020 2570 3980 7550 15200
2026-05-02 06:00 3.81 431 21300 (2011) 144 (2012) 2640 159 174 309 370 1020 2570 3980 7550 15200
2026-05-02 05:30 3.82 435 21300 (2011) 144 (2012) 2640 159 174 309 370 1020 2570 3980 7550 15200
2026-05-02 05:00 3.82 435 21300 (2011) 144 (2012) 2640 159 174 309 370 1020 2570 3980 7550 15200
2026-05-02 04:30 3.82 435 21300 (2011) 144 (2012) 2640 159 174 309 370 1020 2570 3980 7550 15200
2026-05-02 04:00 3.84 443 21300 (2011) 144 (2012) 2640 159 174 309 370 1020 2570 3980 7550 15200
2026-05-02 03:30 3.85 447 21300 (2011) 144 (2012) 2640 159 174 309 370 1020 2570 3980 7550 15200
2026-05-02 03:00 3.85 447 21300 (2011) 144 (2012) 2640 159 174 309 370 1020 2570 3980 7550 15200
2026-05-02 02:30 3.86 451 21300 (2011) 144 (2012) 2640 159 174 309 370 1020 2570 3980 7550 15200
2026-05-02 02:00 3.87 455 21300 (2011) 144 (2012) 2640 159 174 309 370 1020 2570 3980 7550 15200
2026-05-02 01:30 3.87 455 21300 (2011) 144 (2012) 2640 159 174 309 370 1020 2570 3980 7550 15200
2026-05-02 01:00 3.85 447 21300 (2011) 144 (2012) 2640 159 174 309 370 1020 2570 3980 7550 15200
2026-05-02 00:30 3.89 463 21300 (2011) 144 (2012) 2640 159 174 309 370 1020 2570 3980 7550 15200
2026-05-02 00:00 3.89 463 21300 (2011) 144 (2012) 2640 159 174 309 370 1020 2570 3980 7550 15200
2026-05-01 23:30 3.89 463 21300 (2011) 144 (2012) 2640 159 174 309 370 1020 2570 3980 7550 15200
2026-05-01 23:00 3.91 472 21300 (2011) 144 (2012) 2640 159 174 309 370 1020 2570 3980 7550 15200

A total of 171 rows are displayed for years 1984 through 2025.